Retour au catalogue

STARLINK-5168

ActifCommunicationsVLEO
NORAD 54071·PAYLOAD·🇺🇸 United States

Lancé Oct 20, 2022 depuis Cape Canaveral Space Force Station

Loading…

Prochains Passages (prochaines 24 heures)

TLE

FraisSource: CelesTrak SupGP

Époque: Sep 15, 2026, 02:40 UTC

1 54071C 22136W   26258.11159722 -.00030194  00000+0 -89244-3 0  2588
2 54071  53.1593 202.5975 0000939  85.9500 163.7658 15.34394052    16

Suivez STARLINK-5168 en temps réel avec AllMySat

Download on the App Store